Вернуться в каталог

STARLINK-30578

АктивенСвязьVLEO
NORAD 58093·PAYLOAD·🇺🇸 United States

Запущен Oct 18, 2023 с Cape Canaveral Space Force Station

Loading…

Ближайшие Пролёты (ближайшие 24 часа)

TLE

СвежийSource: CelesTrak SupGP

Эпоха: Sep 14, 2026, 22:09 UTC

1 58093C 23160U   26257.92340278  .00042951  00000+0  15559-2 0  2578
2 58093  42.9994  89.0550 0001470 274.5922 249.6985 15.27552859    17

Отслеживайте STARLINK-30578 в реальном времени с AllMySat

Download on the App Store